Погода Пушкинские Горы

Погода Пушкинские Горы : погода сейчас, прогноз погоды и архив. Всё, что Вы хотите узнать о погоде Пушкинские Горы!

Хотите узнать прогноз погоды Пушкинские Горы? Тогда Вам сюда: Погода Пушкинские Горы

Поиск расширенной информации на нашем сайте:

Другие новости

Новости СМИ2

Главная страница сайта

Новости сайта

03.07.2017

Напоминаем, что на нашем специализированном сайте Метеоцентр.Азия вы можете получить высокодетализированные автоматические прогнозы погоды по пунктам России, СНГ и мира в авиационном формате (включающие направление и скорость ветра, видимость, явления погоды, количество и форму облачности, нижнюю и верхнюю границу облачности).


Погода Пушкинские Горы - сегодня

Время (UTC), дата Ветер
(°,м/с) 
Видим.   Явления Облачность Т
(°С)
Тd
(°С)
f(%) Тe
(°С)
Pmin
(гПа)
dP
(гПа)
Po
(мм)
O2
(г/м3)
Тmin Tmax R s Состояние
почвы
12 13.10.18 220 (ЮЗ) 20000 м    8/0 верхняя 
[Ci fib]
+15.6 +9.6 67 +16  1029.9  -0.4  763  289           
15 13.10.18 170 (Ю) 20000 м    9/0 средняя, верхняя 
[Ac trans|Ci fib]
+14.1 +10.1 77 +14  1029.2  -0.8  762  290           
21 13.10.18 170 (Ю) 10 км    6/0 верхняя 
[Ci fib]
+10.5 +9.4 93 +12  1029.8  0.1  763  294           
09 14.10.18 190 (Ю) 10 км    4/0 верхняя 
[Ci fib]
+14 +10.5 79 +16  1029.7  -0.1  763  290           
12 14.10.18 230 (ЮЗ) 20000 м    3/0 верхняя 
[Ci fib]
+18.9 +10.7 59 +22  1028.5  -1  762  285           
15 14.10.18 180 (Ю) 20000 м    1/0 верхняя 
[Ci fib]
+16.2 +10.2 68 +19  1028  -0.6  762  288           
18 14.10.18 160 (Ю) 20000 м    ясно 
+11.7 +9.6 87 +13  1028.2  762  293    +19.6       
21 14.10.18 160 (Ю) 10 км    ясно 
+9.9 +8.9 93 +11  1028.1  -0.2  761  295           
00 15.10.18 160 (Ю) 10 км    ясно 
+8.8 +7.8 93 +9  1027.9  -0.2  761  296           
03 15.10.18 160 (Ю) 10 км    ясно 
+7.8 +6.9 94 +8  1027.3  -0.6  761  297  +7.7         
06 15.10.18 160 (Ю) 10 км    ясно 
+8 +6.1 88 +8  1027.4  0.1  761  297  +6.7         
09 15.10.18 200 (Ю) 20000 м    ясно 
+14 +6.3 60 +15  1027.3  0.1  761  291           
12 15.10.18 200 (Ю) 20000 м    ясно 
+18.4 +3.9 38 +19  1026  -1.1  760  286           
15 15.10.18 180 (Ю) 10 км    3/0 верхняя 
[Ci fib]
+14.9 +4.2 49 +16  1025.6  -0.5  760  290           
21 15.10.18 160 (Ю) 20000 м    ясно 
+9 +4.6 74 +9  1025.3  -0.4  759  296           
00 16.10.18 170 (Ю) 20000 м    ясно 
+8.5 +4.9 78 +9  1025  -0.3  759  296           
03 16.10.18 180 (Ю) 20000 м    ясно 
+8.2 +5.1 81 +8  1024.2  -0.8  759  296  +8         
09 16.10.18 220 (ЮЗ) 20000 м    9/0 верхняя 
[Ci fib]
+13 +6.1 63 +13  1023.7  758  291           
12 16.10.18 230 (ЮЗ) 20000 м    6/0 верхняя 
[Ci fib]
+18.7 +6.3 44 +19  1023  -0.4  758  285           
15 16.10.18 180 (Ю) 20000 м    3/0 верхняя 
[Ci fib]
+15.6 +6.4 54 +17  1023  -0.2  758  288           
21 16.10.18 160 (Ю) 20000 м    1/0 верхняя 
[Ci fib]
+9.3 +6 80 +9  1024.3  0.5  759  295           
00 17.10.18 160 (Ю) 20000 м    ясно 
+7.9 +5.4 84 +8  1024.3  -0.1  759  296           
03 17.10.18 150 (ЮВ) 20000 м    ясно 
+6.2 +4.6 89 +6  1024.4  759  298  +6.1         
06 17.10.18 160 (Ю) 10 км    ясно 
+6.2 +4.5 89 +6  1024.7  0.3  759  298  +5.1         
09 17.10.18 200 (Ю) 10 км    ясно 
+13.5 +7.2 66 +15  1024.9  0.5  759  290           
Время (UTC), дата Ветер
(°,м/с) 
Видим.   Явления Облачность Т
(°С)
Тd
(°С)
f(%) Тe
(°С)
Pmin
(гПа)
dP
(гПа)
Po
(мм)
O2
(г/м3)
Тmin Tmax R s Состояние
почвы

Для получения пояснительной информации подведите курсор к названию столбца.

ПОГОДА Пушкинские Горы - архив

Всё, что Вы хотите узнать о погоде Пушкинские Горы - удобно и подробно!

Выберите нужную дату (начиная с 1 января 2015* года) и нажмите кнопку "Найти".
Будут отображены архивные сводки погоды по пункту Пушкинские Горы, начиная с указанной даты.


Отображать данные в формате CSV (для использования в таблицах Excel)


Внимание! Наш архив погоды предназначен исключительно для личного некоммерческого использования в познавательных целях. Если Вам необходимы официальные справки о состоянии погоды (для производственных, юридических, коммерческих и т.п. целей), обращайтесь в органы Росгидромета.

*Примечание: данная дата относится к архиву по метеостанциям СССР (Россия, СНГ, Балтия).
Архив по метеостанциям Зарубежной Европы и Азии (кроме Китая) хранится 10 дней, по другим регионам земного шара (Китай, Африка, Америка, Австралия, Океания) - 1 день.

Пушкинские Горы - район местоположения метеостанции


Название, широта, долгота, высота метеостанции:
Пушкинские Горы 57°ш. 28.9°д. 108 м над ур. моря [Российская Федерация]

Дополнительная информация

В oтличие oт бoльшинства пoгoдных сайтoв мы публикуем пoдрoбную метеoинфoрмацию в детальнoм прoфессиoнальнoм фoрмате.

Характеристики температуры и влажнoсти вoздуха измеряются на высoте 2 м в тени вдали oт зданий и деревьев.
Скoрoсть ветра измеряется на высoте 10 м (на урoвне рoста челoвека скoрoсть ветра ниже в 1.5-2 раза). Если метеoстанция нахoдится в гoрoде или в лесу, тo скoрoсть ветра занижена на 2-4 м/с пo сравнению с oткрытым местoм. Скoрoсть ветра над акватoриями крупных рек и oзёр, а также на вершинах хoлмoв на 2-5 м/с выше, чем в oбычных услoвиях.
Атмoсфернoе давление в разных тoчках местнoсти мoжет значительнo oтличаться oт давления на метеoстанции, в зависимoсти oт услoвий рельефа (при пoдъёме на 10 м давление пoнижается примернo на 1 мм рт.ст.).